Location: ??
(35.5052°N, 139.7262°E)
Time: 13:32:02
(UTC+00:00)

X-37B - Visible Passes

Search period start: 24 September 2021 00:00
Search period end: 04 October 2021 00:00
Orbit: 381 x 393 km, 45.0° (Epoch: 29 August)

Date Brightness Start Highest point End Pass type
(mag) Time Alt. Az. Time Alt. Az. Time Alt. Az.
24 Sep 3.2 18:26:45 19° NE 18:26:45 19° NE 18:27:55 10° NE visible
24 Sep 2.9 20:00:06 10° NW 20:02:08 16° N 20:04:09 10° NNE visible
25 Sep 2.6 19:03:21 19° NNW 19:03:29 19° NNW 19:05:49 10° NE visible
26 Sep 3.1 19:40:25 10° NW 19:42:16 14° N 19:44:08 10° NE visible
27 Sep 3.2 18:44:11 15° N 18:44:11 15° N 18:45:37 10° NNE visible
28 Sep 3.1 19:20:46 11° NNW 19:22:25 15° N 19:24:21 10° NE visible
29 Sep 3.7 18:25:05 12° NNE 18:25:05 12° NNE 18:25:35 10° NE visible
29 Sep 2.6 19:58:33 10° NW 20:01:08 23° NNE 20:03:45 10° ENE visible
30 Sep 2.9 19:01:44 16° N 19:02:32 17° NNE 19:04:46 10° ENE visible
01 Oct 2.0 19:38:28 12° NW 19:41:09 34° NNE 19:44:04 10° E visible
02 Oct 2.8 18:42:59 22° NNE 18:42:59 22° NNE 18:45:13 10° ENE visible
03 Oct 0.9 19:19:54 33° NW 19:21:05 61° NNE 19:24:12 10° ESE visible
